Wind_Speed
8 8 8 9 9 9 9 9 9 9 8 9 10 11 10 11 11 12 12 12 13 14 14 14 14 13 12 11 11 10 7 6 3 3 5 10 10 7 7 8 9 9 11 8 4 5 10 10 10 8 9 11 6 3 5 3 3 4 5 7 7 8 9 10 10 10 9 9 9 10 8 6 3 3 6 6 8 9 6 3 5 8 9 10 13 14 13 13
10 9 8 9 9 9 9 9 10 9 9 9 9 10 9 10 10 10 10 10 11 12 12 13 13 11 11 10 9 9 6 5 4 5 8 11 11 9 7 6 8 8 11 8 4 8 13 9 7 9 13 7 5 8 5 4 3 5 6 6 7 8 10 10 10 9 10 9 9 14 12 8 4 4 6 4 6 10 8 6 5 10 12 12 14 14 14 13
11 10 9 8 9 9 9 9 9 9 9 9 9 9 9 8 8 9 8 8 9 10 11 12 11 10 10 9 7 8 5 4 5 7 10 10 9 7 6 6 7 8 11 9 6 11 13 11 11 12 15 7 7 7 5 7 6 7 6 5 7 8 10 10 10 10 10 11 10 11 11 8 3 2 3 2 3 6 8 6 6 11 12 12 13 13 14 13
12 10 10 9 8 9 9 9 9 9 9 9 10 9 9 8 7 8 7 7 9 10 11 10 10 9 9 8 6 6 6 6 5 7 9 9 8 6 5 5 6 8 11 8 7 13 15 14 16 13 15 12 4 8 8 9 6 6 6 5 9 9 9 11 12 11 10 10 9 7 9 8 5 3 4 6 4 3 7 8 8 12 12 12 13 12 12 11
13 11 10 9 8 8 9 9 9 9 9 9 10 9 9 8 7 7 6 7 8 10 10 10 9 9 8 7 6 6 6 3 3 7 8 7 8 6 5 5 6 8 11 10 8 15 16 16 20 17 15 14 2 9 7 9 7 4 9 10 12 11 10 12 12 9 10 11 9 9 9 7 7 7 10 12 8 7 7 7 11 14 14 13 15 13 11 10
13 12 11 10 9 8 8 9 9 9 9 9 10 10 9 8 7 7 7 7 8 10 10 9 9 9 8 6 7 6 5 2 3 4 8 7 8 6 5 5 5 8 11 10 11 15 15 17 18 13 9 8 3 5 5 9 9 4 9 13 16 15 10 10 11 10 11 11 12 13 11 10 10 10 14 18 14 15 18 11 11 14 13 13 15 13 10 10
13 13 11 10 9 8 8 9 9 9 9 9 9 10 10 8 8 7 7 7 8 9 9 8 8 9 8 6 6 5 9 7 1 4 7 9 7 6 5 4 4 8 10 8 11 13 14 17 16 16 11 3 2 3 6 4 6 7 6 12 17 16 10 8 10 11 10 10 12 12 11 13 12 12 15 18 16 18 22 17 15 19 16 12 11 9 6 7
13 13 12 11 10 9 8 8 9 9 9 9 9 10 9 8 8 7 7 7 7 8 8 7 7 10 9 3 3 6 11 9 4 2 5 10 7 6 5 4 5 7 8 8 10 12 13 15 15 14 12 8 5 5 8 3 5 10 5 11 15 15 11 9 8 8 8 7 10 9 9 11 9 12 15 16 16 14 15 16 15 19 19 15 13 10 8 7
14 13 12 11 10 9 8 8 8 9 8 8 9 9 9 8 8 7 6 6 7 8 7 7 7 9 9 4 5 7 5 6 6 4 3 8 6 5 4 3 6 7 8 10 10 11 11 13 12 12 13 8 8 6 8 6 4 9 4 9 12 16 12 6 6 6 6 6 7 8 7 9 9 8 13 14 14 13 12 14 13 13 16 15 13 12 12 10
14 12 12 11 10 9 9 8 8 8 8 8 8 9 9 7 7 7 6 6 6 7 7 7 7 8 8 6 8 7 3 4 4 5 5 7 7 6 4 2 5 7 9 10 9 9 9 11 11 13 15 10 8 2 1 5 7 5 4 8 8 14 13 6 6 7 7 6 7 7 6 10 13 9 9 11 12 13 12 10 8 10 15 15 13 12 13 12
14 12 11 11 10 10 9 9 8 8 8 8 8 8 8 7 7 6 6 6 5 6 6 7 7 8 9 8 10 5 5 4 2 3 6 7 7 6 4 4 6 9 10 11 11 9 10 11 12 15 14 10 10 3 4 6 3 2 5 7 7 10 12 9 6 8 6 4 6 6 5 9 14 12 7 7 9 11 11 8 6 10 14 12 11 11 10 9
14 12 11 10 10 10 9 9 8 8 8 7 8 7 8 7 7 7 6 6 5 6 6 7 8 8 10 10 14 7 3 3 4 4 6 6 7 6 5 7 7 9 10 11 12 11 11 11 12 15 12 11 13 5 7 3 3 4 4 3 7 8 7 8 6 7 7 3 4 5 4 6 10 9 6 7 8 10 10 7 6 8 9 9 8 9 8 6
14 12 11 10 10 9 9 8 7 7 7 7 7 6 7 7 7 7 6 6 6 6 6 7 8 9 11 10 13 9 3 3 4 4 6 7 8 7 8 9 9 10 10 11 12 11 11 11 13 14 13 13 12 6 2 2 3 3 4 2 3 5 4 7 7 9 9 6 6 4 2 5 6 4 4 6 7 8 8 6 6 6 6 6 5 6 6 5
14 12 11 10 9 9 8 8 7 7 6 6 6 6 6 6 6 6 6 6 6 6 6 7 7 8 9 8 7 9 8 5 5 6 7 8 9 10 10 10 10 11 11 11 12 12 12 12 14 15 16 15 7 5 5 4 3 3 8 4 6 5 5 6 8 12 8 7 10 5 4 3 3 4 3 5 7 3 2 7 9 6 5 5 4 3 5 4
13 11 10 10 9 8 7 7 7 6 6 5 5 5 5 5 5 5 5 6 5 6 6 6 7 8 8 10 6 8 11 7 6 8 9 9 10 11 10 10 12 11 11 13 12 12 12 12 14 16 14 9 8 8 6 5 3 5 6 7 9 4 4 8 11 12 7 8 14 6 5 4 4 6 6 7 7 1 1 5 9 9 6 4 2 3 4 4
13 10 10 9 8 7 7 7 7 6 5 4 4 4 4 4 4 4 5 5 5 5 4 2 5 8 8 7 3 5 10 12 11 10 11 11 11 12 12 11 11 11 12 13 12 12 12 13 14 14 10 6 8 8 4 5 5 5 7 7 8 7 6 8 12 12 6 8 14 9 3 6 5 6 8 11 8 2 2 4 5 7 5 2 3 5 3 3
12 10 9 9 7 7 6 6 6 5 4 3 3 3 3 4 4 4 4 4 5 5 5 4 2 8 10 5 3 8 11 13 14 12 12 11 11 13 12 8 9 11 13 13 13 13 13 13 12 11 10 9 6 4 4 5 4 2 6 5 1 10 11 7 10 11 8 6 8 8 4 7 10 9 9 11 8 2 2 3 4 5 2 2 2 3 4 2
11 9 8 8 7 6 6 5 5 4 3 3 2 2 3 4 4 4 4 4 5 5 7 9 6 6 9 9 8 12 14 16 16 13 12 11 12 13 10 8 10 11 12 13 13 13 11 9 10 8 7 7 5 4 4 5 9 8 6 7 5 5 9 7 7 10 12 7 5 5 4 7 12 11 8 8 9 6 1 3 5 4 3 5 6 5 5 2
11 8 7 7 6 5 5 4 4 4 3 2 2 2 3 3 5 6 7 6 6 6 3 7 13 3 2 8 10 9 9 14 18 14 13 12 12 12 10 10 12 11 11 10 8 10 9 7 7 7 6 6 5 5 5 9 11 12 9 6 8 2 7 9 8 10 12 8 3 4 6 6 10 13 9 6 7 9 5 7 7 5 5 5 5 4 4 4
10 7 6 6 6 5 4 4 4 3 3 3 2 3 3 4 6 5 6 10 13 13 7 5 16 10 4 3 4 3 2 6 14 14 14 12 11 12 13 14 12 11 10 9 7 8 8 8 6 8 9 4 8 10 9 9 10 11 9 9 11 5 7 10 10 11 9 4 4 7 6 5 9 14 14 10 8 10 10 10 7 2 4 6 6 4 3 4
9 7 6 6 5 5 4 4 4 3 4 4 3 5 3 6 4 1 1 11 16 16 16 12 13 13 10 4 2 1 2 5 12 14 15 15 14 13 13 14 12 9 9 12 12 6 6 6 7 14 11 6 7 9 8 9 11 11 10 9 10 7 6 11 11 11 6 1 4 6 3 4 10 13 15 13 9 9 11 9 8 3 3 6 6 4 3 4
8 7 5 5 5 5 5 4 4 4 5 5 6 7 4 9 6 6 8 11 13 15 18 16 15 14 10 8 5 4 7 10 14 17 18 17 17 14 12 13 11 9 11 12 11 6 6 6 10 18 9 9 5 8 8 10 10 9 9 8 6 5 6 10 10 8 5 1 4 6 6 5 12 13 13 12 7 7 8 7 8 7 5 1 4 3 3 2
8 6 5 5 5 5 5 5 5 5 5 5 7 6 5 9 7 8 9 11 11 14 19 18 17 15 11 11 10 8 10 13 14 19 21 19 19 18 15 13 11 12 12 11 10 7 6 6 12 14 6 7 6 8 10 10 8 8 7 9 6 5 6 4 8 9 7 3 5 7 6 3 10 11 10 9 11 11 5 3 6 8 9 6 2 0 2 1
7 6 5 5 6 6 5 5 5 5 5 5 8 9 6 9 7 9 9 10 10 10 17 18 17 16 14 10 8 12 14 14 14 17 21 22 20 18 17 15 12 11 12 13 13 12 10 10 12 8 8 6 9 9 11 9 8 10 6 8 7 8 9 6 1 7 9 6 8 8 5 4 9 9 9 9 14 14 6 4 7 8 9 7 4 3 1 1
6 6 5 6 6 5 5 5 5 4 4 5 5 7 7 8 6 7 8 8 8 8 13 16 16 15 15 10 7 11 12 12 15 15 18 22 20 16 14 15 13 10 13 16 14 12 13 14 14 8 5 7 9 8 10 9 8 8 8 8 8 10 10 9 10 9 6 4 10 9 4 3 9 10 11 9 9 11 8 7 6 5 6 7 5 3 2 2
6 6 6 6 6 4 3 2 2 2 5 6 5 4 5 6 5 5 5 5 6 7 10 12 14 12 14 14 10 10 9 11 16 17 17 20 21 18 13 12 11 11 12 12 10 8 9 13 15 11 8 9 10 10 9 9 8 3 8 12 11 10 11 10 12 10 7 6 5 8 3 0 8 9 10 11 9 9 7 5 7 6 4 6 5 1 3 3
7 7 7 7 6 7 6 3 6 5 5 5 1 2 3 5 4 3 3 5 6 9 11 11 11 9 13 14 12 11 6 6 15 18 18 20 21 21 15 10 11 12 12 8 6 7 9 14 15 9 7 8 9 10 8 7 9 3 10 13 11 11 12 12 12 9 7 9 5 1 3 3 4 7 10 13 12 8 4 4 6 6 7 7 6 2 3 4
8 8 9 8 8 9 8 5 8 6 1 1 1 2 3 4 4 2 5 6 5 9 10 9 9 7 9 11 14 14 6 3 13 15 14 14 18 20 15 14 12 11 12 10 8 8 9 13 15 10 6 6 9 11 7 7 9 6 12 12 11 10 10 10 8 6 7 7 7 4 4 2 3 7 10 14 14 9 7 7 5 7 9 8 9 4 3 4
8 9 9 9 9 10 10 7 9 9 2 0 2 3 3 3 3 2 6 5 5 8 7 9 11 9 10 11 15 16 9 7 8 13 16 11 14 17 12 16 17 12 13 15 11 11 10 11 13 13 8 7 12 9 5 6 10 11 13 12 11 10 11 10 6 6 7 6 8 9 5 3 3 7 8 10 12 11 10 8 7 9 10 11 11 6 5 8
6 8 9 10 10 11 11 8 9 9 3 5 6 3 3 5 4 5 7 3 4 7 8 9 12 13 14 11 12 14 12 10 4 11 18 12 14 16 10 14 17 13 11 14 13 15 17 10 5 9 9 9 14 11 7 4 10 10 10 10 11 12 10 6 5 6 6 4 9 11 8 6 1 4 5 6 7 12 14 11 11 12 12 13 13 9 9 9
5 8 9 12 13 14 12 6 6 7 8 8 6 3 5 5 4 7 7 2 2 8 9 8 11 14 16 12 10 12 12 11 6 8 12 9 12 14 8 8 10 9 9 10 11 15 19 14 4 7 13 14 14 11 7 7 8 7 8 7 7 8 6 5 4 4 4 5 9 9 8 7 3 2 5 6 6 12 16 13 14 16 16 18 17 15 13 9
4 7 9 12 13 16 15 9 10 11 9 8 5 4 7 6 5 8 5 2 3 8 8 9 12 13 15 13 11 13 12 11 11 9 8 8 9 11 10 8 6 6 8 8 10 12 14 14 10 10 12 13 13 9 8 11 9 9 8 6 6 6 4 6 5 3 4 7 10 8 8 6 5 4 5 9 6 11 15 14 16 18 19 22 19 16 14 11
2 4 8 10 12 17 17 11 12 12 8 6 6 7 7 5 7 10 7 4 4 7 8 10 14 14 15 13 11 13 12 10 12 11 10 10 9 10 13 13 11 9 8 7 8 9 8 11 14 13 9 11 12 8 8 9 7 9 9 5 6 5 5 7 6 5 5 7 9 9 7 3 4 6 9 10 5 10 16 14 17 19 20 21 18 13 12 12
1 3 7 10 12 17 15 7 8 11 8 6 6 7 7 6 8 11 10 6 6 7 8 10 14 14 14 12 11 12 11 10 11 11 10 10 9 9 12 15 16 12 8 7 7 7 8 8 11 12 8 10 12 10 10 10 10 10 9 8 7 4 5 7 5 6 8 8 11 10 6 4 3 1 5 6 3 13 19 14 16 18 17 18 17 13 10 9
2 4 7 11 14 17 13 7 8 12 9 6 7 7 7 7 7 9 11 7 5 6 5 9 13 13 12 11 12 13 11 9 10 11 9 9 8 8 9 11 15 14 9 7 6 6 8 7 8 16 14 10 12 12 10 10 9 8 7 7 6 6 6 7 7 8 10 8 8 6 3 4 5 3 7 9 6 11 19 17 16 15 13 14 14 10 7 6
3 5 8 10 13 15 12 9 11 11 7 7 8 6 7 9 6 5 7 6 4 5 6 8 10 10 10 9 10 14 13 10 10 10 9 10 10 11 10 9 13 15 13 8 5 4 5 7 8 16 13 6 8 10 9 9 6 5 6 5 7 8 7 8 7 8 9 6 5 4 2 5 7 6 11 14 15 15 14 15 16 12 8 9 10 11 11 12
5 5 5 8 13 13 11 11 11 9 8 8 7 7 8 10 8 4 5 1 4 6 8 8 8 9 9 8 9 12 13 9 9 8 7 9 10 11 12 11 13 16 17 12 6 8 5 6 5 12 11 10 11 10 7 8 9 6 7 8 11 8 7 6 5 6 7 6 5 6 6 8 6 5 9 11 14 15 14 16 21 22 20 18 20 21 18 16
6 5 3 7 11 10 11 13 10 7 8 7 8 10 9 11 12 6 7 7 0 6 6 6 7 8 9 9 9 11 11 8 8 7 7 7 8 11 12 10 12 15 17 14 6 8 7 5 2 4 5 9 11 6 7 10 12 9 10 12 9 6 6 5 4 6 7 6 7 6 9 11 6 4 5 6 8 10 10 10 12 14 11 6 11 14 10 7
8 7 7 9 11 11 12 12 9 8 9 7 7 8 7 13 14 3 4 8 7 5 6 8 8 8 9 9 8 11 11 9 8 7 7 6 6 11 12 8 10 13 15 14 9 6 6 4 2 2 3 3 5 3 7 9 11 9 9 8 4 4 6 6 4 5 7 7 7 6 8 7 3 4 4 6 6 7 8 8 9 14 19 17 12 11 11 12
10 8 7 13 13 12 12 9 8 8 8 7 8 7 8 10 8 1 1 7 9 6 4 5 4 7 10 10 8 10 10 10 8 6 7 6 6 8 11 9 8 11 12 14 10 5 4 4 3 2 4 4 1 5 9 6 4 6 5 5 4 4 4 6 6 6 7 6 7 6 4 2 3 6 4 7 9 7 9 9 7 13 20 21 21 21 20 21
11 7 7 16 14 13 12 7 8 9 7 8 9 10 8 7 5 3 5 10 11 10 8 7 9 5 8 10 9 9 9 9 8 7 6 7 6 5 7 9 8 7 9 10 10 6 3 4 4 3 5 4 3 5 6 6 6 2 4 5 6 5 4 6 6 6 6 7 8 5 2 0 4 4 4 6 8 7 10 10 8 11 11 11 14 16 16 15
11 5 10 18 15 13 12 7 8 9 7 8 10 11 6 2 4 1 2 8 11 11 9 6 10 9 7 11 10 8 9 8 8 8 6 7 9 8 8 11 12 9 7 8 9 8 5 4 5 6 5 3 3 7 6 7 8 7 6 7 7 5 4 5 5 7 7 7 9 6 4 1 4 4 5 9 11 9 9 10 12 12 9 8 11 13 11 8
9 6 15 17 15 15 12 7 8 9 8 10 14 16 8 1 4 6 5 8 9 9 8 6 10 10 5 10 10 7 10 8 7 9 6 7 7 5 9 11 12 9 5 6 8 8 5 3 5 7 3 4 2 4 4 4 6 7 7 7 5 5 5 6 7 7 6 7 8 5 5 2 2 4 8 11 13 11 9 11 13 12 10 11 13 14 13 11
8 10 15 15 15 15 12 7 7 7 8 12 14 15 10 4 7 10 9 7 7 9 8 7 11 9 4 11 10 6 10 7 7 9 6 5 4 7 7 8 9 9 5 5 6 5 4 3 2 5 5 3 5 5 4 3 5 6 6 5 5 7 8 8 8 6 6 10 10 5 3 3 2 5 7 9 12 13 12 12 12 12 11 11 13 16 16 15
10 7 14 13 15 16 14 11 9 7 7 12 13 12 10 7 9 13 12 9 9 9 7 8 12 10 7 10 7 5 10 8 7 8 6 2 7 5 5 6 8 11 5 0 0 2 3 5 4 4 7 4 2 2 2 2 4 5 7 8 8 10 10 9 8 6 5 9 11 6 3 5 5 5 6 6 8 11 12 12 11 11 10 10 11 14 13 13
10 2 9 12 14 17 18 16 15 11 7 9 10 10 12 10 11 14 14 12 10 11 10 9 12 13 11 7 5 5 10 9 7 5 6 5 5 7 6 7 12 11 3 7 5 2 4 5 3 3 6 5 3 3 3 3 5 7 8 8 8 8 9 8 7 6 5 3 5 5 3 6 6 4 6 6 6 8 9 11 11 10 10 10 10 10 9 10
9 4 5 9 10 13 15 18 18 13 11 12 7 9 14 13 11 14 16 12 11 11 11 10 12 13 10 7 7 8 9 10 5 2 7 8 4 8 6 8 13 6 5 4 4 3 5 5 4 3 5 8 8 6 6 5 7 8 9 10 9 8 9 8 6 8 9 4 3 5 5 4 4 5 6 5 5 6 6 7 8 8 10 10 9 9 7 8
9 5 4 7 9 9 10 14 18 15 15 15 8 6 12 13 11 10 13 12 13 13 11 10 11 14 10 8 10 7 6 9 5 3 8 8 6 6 6 9 11 7 1 6 7 3 5 7 6 3 4 9 8 6 7 7 7 8 8 9 8 8 11 11 8 10 11 6 4 5 5 4 4 6 7 6 6 7 6 5 7 8 9 9 8 6 6 7
8 8 10 12 8 8 12 16 19 16 14 13 6 4 8 11 12 9 9 9 11 13 13 10 10 14 13 10 9 8 6 7 7 6 6 2 6 4 5 7 9 9 7 9 7 6 5 5 6 4 4 8 8 6 6 7 9 9 7 7 7 7 10 13 11 10 10 7 6 6 6 6 6 7 8 7 7 9 8 7 8 7 6 9 8 5 6 7
8 8 11 18 16 10 8 12 17 14 11 10 7 7 9 11 12 9 9 10 9 11 14 13 11 13 13 11 9 8 10 6 5 4 5 2 5 6 4 5 7 8 9 10 6 7 5 3 4 5 6 8 9 8 7 8 11 7 7 8 8 8 10 12 11 10 9 5 4 6 6 6 7 7 9 8 7 6 6 6 5 4 7 12 13 9 8 9
6 7 10 13 12 11 12 10 11 9 8 9 8 8 10 13 13 11 12 13 12 13 14 14 12 12 12 14 10 5 8 4 7 3 10 6 3 4 3 3 6 8 9 10 6 7 5 4 3 4 7 7 7 9 9 9 9 4 12 10 7 8 9 10 9 10 9 7 8 8 6 4 5 7 8 8 6 5 4 4 4 5 8 12 11 9 9 9
6 9 9 9 8 9 11 9 7 6 6 8 9 11 13 13 13 11 10 12 15 16 14 14 13 11 8 9 5 5 7 4 9 4 5 1 4 4 3 3 2 4 4 7 6 6 3 4 3 3 4 5 7 10 10 9 6 2 7 6 6 5 5 7 7 11 10 8 7 7 5 3 3 5 5 4 5 6 6 5 5 5 6 9 8 7 8 9
Wind_Direction
317 305 296 293 293 290 289 287 287 288 286 285 282 282 283 285 289 293 298 306 312 314 316 316 317 320 326 326 317 312 311 308 288 209 255 272 272 273 274 296 313 329 345 348 20 333 300 285 270 269 282 278 267 12 8 313 332 5 43 57 45 50 47 42 44 45 54 70 118 126 98 98 107 119 138 136 115 118 130 87 84 102 99 104 122 139 144 147
320 313 301 293 291 290 290 287 286 286 284 285 283 282 283 285 289 292 300 308 311 314 314 314 316 320 327 326 317 312 309 299 275 227 242 261 265 274 281 295 317 333 342 343 328 314 326 330 312 303 287 276 40 18 351 330 349 36 47 68 59 58 61 52 54 57 57 56 91 111 105 101 88 114 151 183 124 128 131 116 127 117 108 114 125 140 145 149
320 316 308 296 290 290 289 287 286 284 283 283 282 283 282 283 287 291 301 307 310 313 312 312 313 318 326 324 314 308 314 296 267 238 237 253 263 273 282 301 323 336 347 341 307 309 321 317 302 302 295 304 37 353 358 19 14 57 53 72 77 74 74 68 66 58 62 63 63 93 111 110 94 111 128 42 66 121 120 139 169 124 118 130 130 138 145 151
317 315 312 302 291 288 287 287 285 284 282 280 282 282 281 284 285 290 300 306 309 310 309 309 309 316 322 320 306 306 321 297 255 211 222 248 260 265 275 302 327 336 350 343 306 306 303 299 293 285 283 285 35 42 22 17 9 60 65 86 94 89 80 71 65 59 59 55 45 75 105 111 105 45 52 67 45 50 112 160 157 121 132 141 135 136 143 154
315 313 311 305 295 288 286 285 283 283 281 278 280 279 281 285 284 289 297 304 307 306 307 305 306 312 316 312 295 304 310 285 175 184 212 241 251 255 269 295 332 339 344 339 312 303 299 297 290 271 254 261 7 61 31 15 359 49 74 81 95 92 72 60 56 58 55 41 31 45 68 92 95 59 41 54 53 33 64 144 129 126 160 151 137 140 140 152
313 311 308 305 299 290 285 285 284 282 281 279 278 278 281 283 284 288 294 303 304 304 304 303 306 310 314 304 288 294 283 275 94 205 215 222 242 248 264 289 333 340 342 334 298 300 309 306 307 307 277 262 325 52 48 19 6 36 79 78 88 89 67 56 55 48 45 36 28 29 43 60 68 66 53 51 50 43 47 51 62 92 143 144 134 139 134 144
313 310 306 304 299 292 287 285 284 282 280 279 278 279 279 281 284 285 294 302 302 303 303 304 306 311 317 300 285 276 262 266 300 252 218 215 237 241 257 290 324 336 339 326 299 311 325 318 343 348 321 352 352 51 63 9 44 62 82 86 90 91 73 64 61 50 50 39 30 31 35 45 56 64 65 68 62 49 50 46 41 65 90 95 101 109 94 109
313 309 305 302 298 294 288 284 286 284 281 280 278 278 279 282 283 285 295 298 300 302 299 302 306 315 324 316 306 279 254 233 200 282 219 211 227 236 247 280 307 341 329 307 306 319 328 329 358 342 323 29 332 10 51 290 97 73 66 89 95 100 85 80 80 66 73 52 29 34 34 33 51 69 67 72 70 54 51 59 65 75 76 68 69 73 68 76
312 309 305 301 298 295 288 285 286 285 283 279 277 277 278 282 282 284 290 293 299 299 298 301 304 316 324 333 318 289 240 174 195 279 249 209 210 229 238 273 303 339 314 295 301 311 333 343 357 338 330 354 304 5 41 290 70 66 67 97 106 111 100 90 97 80 65 60 43 37 39 26 23 64 68 61 71 71 58 65 73 77 80 82 82 92 113 117
313 309 305 301 298 294 287 282 282 284 282 278 276 276 279 281 283 283 286 292 295 297 298 297 303 313 317 320 301 276 146 133 224 261 254 222 195 209 235 247 281 301 297 299 301 315 347 344 340 327 316 306 290 353 48 321 35 52 93 100 104 114 119 124 111 94 55 57 74 48 38 39 31 47 66 59 74 77 64 63 60 66 83 93 89 99 128 129
313 309 306 302 297 292 285 281 282 283 280 277 275 276 281 280 281 281 282 287 290 297 297 295 306 304 307 304 280 255 125 139 189 207 234 222 196 202 238 246 260 277 289 300 302 324 343 339 334 319 316 322 311 322 69 30 24 184 117 111 107 107 118 123 118 106 83 60 85 74 58 50 45 54 73 75 75 69 64 56 45 69 82 83 88 104 126 120
314 309 306 303 297 291 285 284 285 286 284 277 274 277 280 279 280 280 279 284 287 297 296 296 303 302 314 294 255 236 121 168 166 181 214 206 208 216 237 255 262 273 289 299 306 328 332 332 327 312 325 328 308 333 62 20 246 153 116 147 116 102 106 116 132 125 123 110 77 97 101 55 48 62 78 80 73 73 74 57 53 79 75 63 86 113 123 122
314 308 306 303 297 290 285 284 283 285 284 277 277 277 279 281 280 278 277 281 284 292 296 298 300 307 317 287 237 217 183 209 198 191 206 205 218 227 238 252 262 271 283 291 301 315 314 315 315 311 314 304 311 354 58 284 321 115 151 235 142 152 143 135 152 141 139 140 107 105 98 52 54 90 81 68 68 77 87 87 92 94 80 80 105 126 123 120
315 308 305 304 299 292 284 281 280 280 280 279 278 274 280 284 279 279 278 279 283 289 295 293 297 310 300 273 229 199 185 185 211 208 206 210 219 230 238 249 260 267 273 280 290 298 301 305 301 295 285 271 286 321 224 201 346 176 164 181 227 216 158 177 176 156 163 160 143 116 70 79 122 144 128 84 80 69 131 132 133 134 116 108 101 124 136 135
315 307 303 304 300 293 285 280 277 277 279 276 272 275 283 284 281 282 275 276 281 279 292 298 307 322 291 268 256 209 203 207 227 219 209 212 220 230 234 242 256 263 269 277 284 287 291 298 292 289 293 269 239 260 238 197 223 208 185 193 217 222 165 194 178 173 194 156 161 162 83 118 151 138 146 131 119 163 266 124 133 137 134 120 117 163 152 138
314 306 302 304 300 293 285 276 273 275 278 269 268 279 282 288 289 283 278 276 277 275 280 306 330 326 299 275 251 210 219 225 228 221 212 215 219 228 233 233 247 261 265 269 277 284 283 284 283 280 290 280 247 255 249 234 231 228 246 225 193 174 171 185 168 174 189 151 175 199 116 127 159 158 161 153 155 218 357 72 84 94 122 162 184 176 119 99
311 303 301 303 301 293 281 271 270 270 268 259 267 281 288 299 293 286 283 265 266 269 249 232 301 298 268 251 246 232 227 221 221 217 208 214 222 233 244 236 239 255 263 265 264 269 271 272 274 263 247 249 271 267 235 274 312 281 260 287 143 163 167 167 160 162 168 166 192 199 139 135 154 159 163 158 156 155 39 73 58 48 77 50 57 85 54 63
309 300 299 302 298 290 278 268 264 259 258 252 256 281 296 300 294 283 266 260 263 254 255 236 224 286 251 225 247 241 224 216 212 209 205 212 223 238 256 252 246 250 258 264 254 251 258 260 266 278 266 251 269 259 252 336 343 336 329 339 347 169 158 142 141 150 164 186 219 188 108 110 141 143 157 163 139 125 95 77 62 14 17 27 17 37 26 4
304 294 296 299 296 288 275 263 257 249 248 234 236 267 279 284 279 268 246 238 227 219 270 205 198 273 328 199 227 227 213 209 202 204 211 210 215 230 243 248 257 261 258 254 226 225 245 252 255 272 278 276 312 330 347 359 338 328 334 304 298 311 122 125 135 147 164 182 198 144 117 127 143 140 156 176 132 117 96 79 68 352 356 23 354 7 8 1
299 290 291 292 295 287 268 256 241 230 229 219 235 243 259 278 257 236 212 222 228 235 273 212 202 243 295 202 212 185 144 184 190 203 212 209 214 226 231 237 251 257 258 259 225 205 231 257 268 262 258 289 356 355 346 337 317 308 305 281 286 300 118 121 126 142 169 186 116 113 125 140 131 138 158 177 159 124 102 98 107 298 342 12 346 343 3 13
293 282 282 288 292 280 262 250 225 218 217 210 228 232 281 342 316 337 274 243 244 245 256 248 227 250 270 289 328 236 266 211 201 216 221 215 220 226 222 226 240 239 234 253 260 242 231 258 272 264 276 15 3 325 316 307 303 296 289 283 294 318 64 88 102 133 160 203 134 145 195 159 130 142 157 168 175 134 119 124 134 140 26 5 332 325 348 6
285 276 277 283 281 270 256 241 226 221 214 218 229 227 294 354 343 330 322 278 261 242 239 241 240 254 263 259 260 257 262 239 219 222 223 216 214 220 214 211 228 241 229 236 255 260 238 246 257 257 284 27 345 292 289 285 291 294 290 285 294 344 41 83 99 124 142 176 158 175 246 193 146 151 159 168 170 115 116 136 137 127 107 52 289 305 311 332
278 269 270 275 270 264 251 238 234 229 224 234 226 217 302 336 327 316 308 286 274 238 224 226 232 239 241 236 233 227 241 245 228 214 213 211 210 216 221 218 219 234 240 235 232 241 239 238 260 275 342 14 308 281 271 267 265 263 270 278 293 14 19 76 124 150 172 198 153 175 245 188 135 144 149 144 126 106 84 110 123 121 132 164 198 226 259 246
271 262 265 267 259 256 248 239 235 234 241 243 220 214 285 322 322 324 304 280 282 240 216 217 222 229 232 230 221 215 227 238 229 212 203 203 209 214 225 236 229 223 236 247 245 247 258 256 260 303 6 316 294 290 276 278 270 268 271 272 298 359 355 347 224 189 189 181 155 185 236 129 132 149 133 105 110 114 97 88 101 104 128 153 131 109 195 161
264 258 259 255 254 253 247 248 245 250 250 247 242 230 269 306 309 322 309 273 263 228 206 209 214 223 222 209 202 215 227 233 231 221 196 194 209 214 218 232 239 234 225 234 250 251 256 266 265 279 321 284 282 274 271 288 283 295 346 351 354 351 333 327 305 281 255 213 164 184 268 115 148 158 138 123 122 126 117 115 129 131 139 142 113 96 160 151
260 258 255 247 248 226 203 229 219 252 248 245 281 263 257 288 290 303 298 267 246 193 172 188 196 201 202 193 196 211 224 221 218 222 202 189 207 221 220 217 227 250 246 235 248 257 255 260 261 273 302 296 287 275 273 292 279 289 12 2 360 331 310 310 301 296 305 306 179 175 280 67 158 163 153 145 138 134 128 140 163 187 185 135 109 120 174 153
262 256 249 242 234 199 176 156 160 181 240 231 230 243 251 273 268 292 267 249 233 179 158 169 178 183 195 190 189 203 238 206 192 213 215 191 198 221 231 222 212 233 261 271 249 243 248 250 251 256 272 278 276 271 279 302 284 319 31 2 336 319 313 318 316 311 304 301 280 178 21 27 140 154 157 143 130 134 162 190 174 204 215 151 128 176 177 138
262 250 242 235 223 197 187 182 164 162 273 354 85 261 276 264 234 257 254 236 190 161 152 159 167 180 193 187 193 210 256 210 178 192 202 185 191 209 223 235 240 228 230 250 258 248 235 242 255 245 230 260 256 256 292 327 290 323 19 353 321 317 308 300 301 293 298 313 311 330 16 15 134 141 152 141 135 148 187 205 186 223 226 161 132 146 179 158
258 242 234 223 212 198 191 189 175 165 143 286 271 275 268 254 237 249 254 234 153 149 150 156 164 179 185 181 199 214 227 222 186 169 178 191 202 211 223 230 247 261 229 226 244 258 240 227 249 247 224 244 255 265 357 347 296 323 348 325 299 284 266 264 283 308 336 348 313 304 302 257 164 143 161 160 157 160 178 200 199 210 204 156 133 139 194 184
249 231 224 208 195 189 190 194 193 196 228 241 241 260 248 243 242 225 218 213 163 156 145 152 167 183 187 183 196 208 213 219 202 167 182 197 205 215 238 222 231 263 252 233 234 250 258 255 271 272 263 261 267 293 1 318 288 308 309 294 289 277 265 278 313 319 324 311 297 302 297 286 235 149 174 181 168 155 160 181 192 189 170 146 143 164 201 188
236 224 214 201 194 182 177 183 201 222 255 241 222 241 245 229 233 226 193 173 199 155 145 165 175 181 189 195 194 194 212 215 182 172 182 183 195 208 229 218 219 248 251 247 238 238 250 257 262 256 262 275 282 294 310 277 265 273 275 279 289 287 289 298 269 257 292 296 293 302 309 321 352 171 177 158 151 155 160 168 178 177 157 150 163 177 192 182
228 223 207 201 201 181 168 180 205 214 222 213 206 230 233 209 218 234 194 146 195 164 167 187 181 180 189 205 199 181 210 213 168 183 203 185 197 203 211 219 200 215 234 236 232 228 234 244 246 233 233 251 268 274 267 257 242 237 250 258 275 287 292 287 271 270 306 287 287 322 351 1 49 58 102 125 151 162 159 161 166 166 152 153 170 178 179 174
224 220 202 198 197 182 178 190 205 207 197 197 226 232 231 222 210 219 204 162 163 173 182 179 179 187 185 202 210 178 201 214 165 184 215 199 207 200 203 222 215 211 232 230 229 226 218 227 238 246 231 211 233 257 252 260 263 250 256 263 273 291 300 294 297 310 311 289 306 355 10 17 78 50 70 104 145 146 145 158 159 157 154 155 170 178 170 169
178 187 189 188 183 184 193 208 199 192 183 198 236 226 225 235 209 213 218 188 168 195 195 168 175 189 185 201 213 178 194 223 179 183 207 199 216 209 195 217 224 225 236 239 244 236 230 228 210 225 235 189 202 239 257 281 290 276 293 311 300 314 318 309 320 326 325 319 327 346 351 9 70 47 61 83 131 133 140 156 148 148 155 155 162 171 165 164
160 164 179 183 179 184 195 212 198 185 178 206 236 222 215 228 204 205 223 215 186 193 182 167 176 184 188 204 213 189 193 224 192 187 210 205 214 219 199 206 216 227 236 226 237 233 238 259 200 203 224 202 191 213 234 261 274 276 292 296 317 355 332 316 336 328 318 316 323 345 26 67 97 94 40 32 31 97 126 137 129 137 150 144 147 155 149 135
151 168 184 186 183 187 193 201 190 179 192 226 234 225 215 228 220 192 216 217 181 179 173 174 186 188 185 200 214 194 192 218 200 187 213 212 214 221 213 205 202 215 234 226 236 245 228 257 213 190 200 206 215 230 223 230 261 290 274 282 357 354 304 303 327 316 307 308 319 347 44 93 99 58 25 30 39 53 79 88 75 64 60 58 53 44 30 27
142 143 184 197 191 192 195 196 184 181 222 240 239 238 229 239 252 270 286 304 126 196 200 173 188 202 186 193 214 190 181 203 196 188 211 203 210 221 216 215 196 202 230 237 274 307 292 279 220 172 177 194 219 260 269 260 285 295 278 315 355 340 298 307 316 306 310 313 316 338 25 60 71 29 9 34 58 60 53 51 45 35 25 16 22 31 22 14
154 144 206 210 197 196 195 190 183 198 233 239 248 254 258 266 257 250 310 328 234 224 220 177 194 211 196 193 199 180 172 185 178 186 218 196 192 209 216 223 193 194 227 228 243 298 293 284 238 171 212 198 191 241 276 256 261 275 293 318 337 319 302 310 313 318 317 306 302 339 48 57 43 32 34 39 68 86 83 80 78 74 76 55 36 47 49 47
184 195 205 185 182 191 190 184 187 220 234 229 246 250 246 264 262 219 18 325 296 254 207 191 200 212 220 217 192 169 174 192 183 184 217 201 169 186 201 218 188 190 224 226 217 263 271 253 198 157 258 223 157 210 260 238 213 226 282 302 299 300 309 316 320 309 301 298 302 337 55 64 5 356 45 80 106 131 133 128 128 130 137 145 142 133 141 150
204 215 175 160 170 180 179 182 200 221 233 228 244 247 219 240 267 71 103 266 272 272 234 230 228 201 214 229 207 173 180 206 201 192 211 189 149 172 197 216 205 189 209 228 236 260 282 249 190 163 231 245 188 211 243 271 189 191 248 274 275 297 315 317 308 297 305 311 312 335 38 51 342 339 6 95 122 154 151 142 144 144 147 153 160 162 161 162
226 243 155 157 168 170 170 188 212 217 231 234 247 257 241 242 247 169 187 233 255 281 285 300 304 255 202 226 221 170 176 217 210 204 213 185 171 202 207 209 217 195 190 220 242 245 252 245 213 204 213 217 282 252 252 333 10 351 289 304 307 305 312 308 297 309 326 314 313 343 79 326 339 341 354 77 107 134 141 140 128 120 136 152 150 149 153 158
245 250 151 161 165 166 175 197 213 216 227 230 241 246 233 291 282 216 177 226 238 267 271 265 282 274 195 212 229 172 173 214 216 211 212 198 204 204 182 189 207 216 205 209 227 230 239 276 261 236 207 186 307 328 349 357 345 323 297 291 294 296 309 311 313 330 331 310 317 357 93 91 332 4 40 64 83 98 111 116 107 103 115 127 119 120 134 136
241 139 141 165 167 171 191 211 211 216 230 233 244 247 229 150 271 263 260 231 212 234 251 237 260 272 206 215 236 191 180 201 215 217 201 194 208 160 140 172 194 208 220 201 210 228 237 262 279 268 238 154 204 287 308 301 297 291 275 271 288 316 329 324 326 330 322 322 336 19 91 99 338 32 67 88 97 100 101 104 107 109 113 116 111 108 108 102
250 135 145 175 175 181 206 221 205 207 223 229 243 256 254 240 240 238 235 228 209 219 231 228 247 266 242 237 245 186 176 191 208 228 235 186 133 83 113 160 184 198 203 187 186 198 217 217 253 281 269 190 196 241 263 298 307 286 286 318 341 333 329 324 325 328 327 348 11 42 82 94 84 64 80 98 102 103 103 104 110 113 113 116 113 108 105 101
272 157 154 180 186 199 222 234 234 228 219 225 234 245 250 239 231 235 239 235 221 219 226 226 241 263 251 237 254 189 182 206 219 228 258 184 119 125 174 174 201 215 212 243 115 146 210 215 191 239 267 260 242 266 263 307 314 282 298 335 337 327 335 333 328 339 348 9 34 49 76 105 115 104 94 87 85 96 102 104 110 111 111 113 110 107 105 101
291 213 160 176 191 211 228 241 256 267 257 242 233 228 237 236 221 224 237 249 234 222 235 228 224 253 256 219 239 231 188 210 254 227 210 209 136 147 178 187 210 225 327 7 351 323 252 240 202 221 277 300 311 306 284 267 270 269 290 315 318 330 347 335 323 344 341 357 60 59 73 111 120 100 79 71 73 87 97 103 107 109 113 113 108 106 101 96
280 276 186 176 188 216 228 233 241 249 258 261 243 207 221 233 226 205 202 224 234 221 237 238 210 229 246 186 199 234 192 188 257 281 201 209 129 115 153 203 207 207 355 320 240 268 276 264 250 225 253 271 271 286 303 294 284 292 308 321 328 339 340 330 340 9 2 352 73 59 55 89 102 92 90 92 86 78 83 100 108 116 120 117 116 116 108 98
253 280 249 200 189 201 215 226 230 232 244 254 250 207 217 228 234 208 183 204 226 214 222 242 218 216 225 192 195 218 195 182 195 243 221 194 120 117 167 203 197 170 249 247 211 224 277 273 270 244 242 266 272 286 302 301 296 300 304 307 323 340 342 345 358 14 23 47 104 89 82 100 111 109 106 106 113 120 137 144 134 136 134 129 127 123 111 106
285 330 318 299 274 218 207 218 224 227 235 243 244 239 238 234 229 210 178 197 216 206 211 228 220 213 209 202 205 191 180 202 199 212 244 151 121 157 167 180 191 175 194 228 209 202 246 280 298 302 281 278 282 276 278 286 285 290 305 315 330 356 2 3 2 6 29 70 110 104 101 96 85 95 100 99 112 129 147 150 137 137 133 124 125 118 110 118
324 344 324 314 305 281 257 230 220 222 230 236 241 238 235 233 227 203 181 202 204 191 209 218 210 214 202 190 223 208 173 217 265 200 202 186 169 191 177 179 188 163 186 227 207 162 199 279 328 319 289 281 284 276 267 266 270 296 20 14 350 359 2 355 355 8 20 23 39 63 82 79 77 98 110 109 112 118 131 136 124 104 90 103 119 130 129 127
323 320 307 304 295 299 313 282 230 222 223 224 229 230 230 232 225 195 178 203 202 180 202 215 200 212 203 179 207 230 145 171 307 221 184 208 234 216 201 190 186 162 186 225 199 140 178 253 287 286 274 274 283 283 280 272 271 358 50 41 15 15 354 330 351 24 20 354 4 35 52 63 92 108 101 102 116 111 87 75 96 115 106 103 113 124 122 114
326 332 315 298 284 287 301 284 243 232 231 223 215 217 225 225 214 192 172 194 199 183 197 215 197 201 209 162 142 24 61 48 345 12 155 239 319 259 189 136 211 205 199 223 203 160 196 253 257 264 274 281 285 284 285 284 282 7 45 33 31 31 332 319 14 37 30 21 28 44 52 57 105 106 87 92 112 97 72 55 65 90 92 83 78 75 80 81
Height
1527 1527 1526 1526 1526 1525 1525 1525 1525 1525 1525 1524 1524 1524 1524 1524 1524 1524 1524 1523 1523 1522 1521 1519 1518 1518 1517 1517 1516 1515 1514 1514 1513 1513 1514 1513 1513 1513 1512 1512 1511 1510 1510 1508 1505 1505 1505 1503 1501 1500 1500 1497 1494 1493 1493 1492 1490 1488 1492 1506 1514 1515 1515 1511 1510 1511 1512 1515 1513 1514 1514 1514 1515 1515 1516 1516 1517 1518 1517 1516 1517 1519 1519 1520 1521 1522 1524 1524
1527 1527 1526 1526 1525 1525 1525 1524 1524 1524 1524 1524 1523 1524 1524 1524 1524 1524 1524 1523 1523 1521 1520 1519 1518 1518 1517 1517 1516 1515 1514 1514 1513 1512 1513 1513 1513 1513 1512 1512 1511 1510 1510 1508 1506 1507 1506 1503 1502 1500 1497 1494 1492 1491 1491 1490 1488 1489 1495 1509 1515 1513 1511 1507 1507 1508 1508 1511 1510 1511 1513 1514 1514 1514 1515 1516 1516 1518 1519 1519 1518 1520 1521 1521 1522 1523 1525 1525
1526 1526 1526 1525 1525 1524 1524 1524 1524 1524 1524 1524 1523 1523 1523 1524 1524 1524 1524 1523 1522 1521 1520 1519 1518 1518 1518 1517 1516 1515 1514 1513 1513 1512 1512 1512 1513 1512 1512 1512 1511 1511 1509 1508 1507 1507 1506 1503 1502 1500 1494 1490 1490 1490 1488 1487 1488 1489 1498 1512 1514 1507 1506 1506 1507 1508 1508 1509 1508 1510 1513 1513 1514 1513 1514 1515 1516 1515 1519 1522 1520 1522 1523 1523 1524 1525 1526 1526
1526 1526 1525 1525 1525 1524 1524 1523 1523 1523 1523 1523 1523 1523 1523 1523 1524 1524 1524 1523 1522 1521 1520 1519 1518 1518 1518 1517 1516 1515 1514 1513 1511 1511 1511 1512 1512 1512 1512 1512 1511 1511 1510 1509 1507 1507 1505 1503 1501 1498 1495 1489 1486 1487 1487 1488 1489 1489 1497 1509 1507 1503 1506 1507 1507 1509 1509 1510 1509 1509 1511 1513 1514 1514 1513 1515 1519 1518 1519 1522 1521 1524 1525 1523 1526 1527 1527 1528
1525 1525 1525 1524 1524 1524 1523 1523 1523 1523 1523 1523 1522 1523 1523 1523 1523 1523 1523 1523 1522 1521 1520 1519 1518 1518 1518 1517 1516 1515 1515 1517 1512 1509 1511 1512 1512 1512 1512 1512 1512 1511 1510 1509 1508 1507 1504 1501 1497 1492 1493 1488 1483 1488 1490 1489 1488 1490 1495 1500 1500 1502 1507 1508 1508 1510 1510 1511 1511 1508 1510 1513 1513 1514 1514 1515 1522 1523 1522 1523 1523 1526 1525 1524 1527 1528 1528 1530
1525 1524 1524 1524 1523 1523 1523 1522 1522 1522 1522 1522 1522 1522 1522 1523 1523 1523 1523 1523 1522 1521 1520 1519 1518 1518 1517 1516 1516 1514 1516 1517 1512 1510 1512 1511 1512 1512 1512 1513 1512 1511 1510 1509 1508 1506 1503 1499 1492 1486 1487 1487 1484 1487 1491 1490 1489 1494 1497 1497 1500 1504 1507 1509 1510 1511 1511 1512 1512 1511 1511 1512 1512 1515 1517 1518 1522 1524 1526 1527 1527 1530 1530 1529 1530 1530 1531 1532
1524 1524 1523 1523 1523 1523 1522 1522 1522 1522 1522 1522 1522 1522 1522 1523 1523 1523 1523 1522 1521 1521 1520 1519 1518 1517 1517 1516 1515 1515 1514 1513 1511 1511 1511 1511 1512 1512 1513 1513 1512 1512 1511 1510 1509 1506 1503 1499 1493 1488 1486 1486 1486 1485 1490 1490 1487 1495 1500 1497 1502 1507 1507 1510 1510 1512 1513 1514 1514 1514 1513 1512 1513 1515 1517 1520 1523 1525 1527 1529 1531 1535 1538 1537 1536 1535 1536 1536
1524 1523 1523 1522 1522 1522 1522 1522 1521 1521 1521 1521 1521 1521 1521 1522 1522 1522 1522 1522 1521 1520 1520 1519 1518 1517 1517 1516 1515 1515 1513 1511 1510 1511 1511 1511 1512 1512 1513 1513 1512 1512 1511 1510 1510 1507 1504 1500 1497 1495 1490 1488 1488 1486 1488 1490 1487 1493 1498 1497 1503 1508 1508 1510 1511 1512 1514 1515 1516 1516 1515 1514 1513 1514 1516 1519 1523 1525 1526 1528 1532 1535 1536 1536 1536 1537 1539 1540
1523 1523 1522 1522 1522 1521 1521 1521 1521 1521 1521 1521 1521 1521 1521 1522 1522 1522 1522 1521 1521 1520 1519 1519 1518 1518 1517 1516 1516 1515 1511 1509 1510 1511 1512 1512 1512 1512 1513 1513 1513 1512 1511 1511 1510 1507 1505 1502 1501 1499 1495 1492 1489 1487 1488 1492 1493 1493 1495 1497 1501 1506 1508 1509 1510 1512 1514 1515 1517 1517 1516 1516 1513 1514 1518 1520 1522 1524 1524 1527 1530 1531 1531 1531 1534 1535 1536 1538
1522 1522 1522 1521 1521 1521 1521 1520 1520 1520 1520 1520 1520 1520 1521 1521 1521 1521 1521 1521 1521 1520 1519 1519 1518 1518 1517 1517 1517 1515 1511 1510 1511 1511 1512 1512 1512 1513 1513 1513 1513 1513 1512 1511 1509 1507 1506 1505 1504 1501 1498 1492 1487 1487 1487 1492 1495 1492 1493 1496 1498 1503 1506 1507 1509 1511 1513 1515 1517 1519 1518 1517 1515 1516 1522 1522 1521 1523 1524 1525 1528 1529 1530 1531 1534 1534 1534 1535
1522 1521 1521 1521 1521 1520 1520 1520 1520 1520 1520 1520 1520 1520 1520 1521 1521 1521 1521 1521 1520 1520 1519 1519 1518 1518 1517 1517 1517 1513 1511 1512 1512 1511 1512 1512 1512 1513 1513 1514 1514 1514 1513 1511 1509 1507 1507 1507 1505 1503 1499 1493 1488 1486 1486 1490 1494 1491 1493 1497 1498 1499 1504 1506 1508 1511 1513 1515 1517 1518 1519 1519 1519 1521 1524 1523 1522 1524 1524 1524 1526 1529 1531 1532 1534 1535 1534 1534
1521 1521 1520 1520 1520 1520 1520 1520 1519 1519 1519 1519 1520 1520 1520 1520 1521 1520 1521 1520 1520 1520 1519 1519 1519 1518 1516 1516 1514 1512 1512 1513 1513 1513 1512 1512 1513 1513 1514 1515 1515 1514 1513 1512 1510 1508 1508 1508 1507 1505 1500 1496 1492 1489 1490 1491 1490 1489 1493 1501 1502 1501 1505 1506 1506 1511 1513 1515 1516 1518 1525 1527 1525 1526 1524 1523 1524 1524 1524 1524 1525 1528 1530 1531 1532 1534 1534 1534
1520 1520 1520 1520 1519 1519 1519 1519 1519 1519 1519 1519 1519 1519 1520 1520 1520 1520 1520 1520 1520 1520 1519 1519 1518 1518 1517 1514 1510 1511 1513 1513 1513 1513 1513 1513 1514 1514 1515 1515 1514 1514 1514 1513 1511 1510 1510 1509 1507 1505 1502 1498 1493 1492 1494 1490 1488 1492 1495 1501 1507 1511 1512 1506 1505 1511 1512 1515 1515 1519 1536 1540 1531 1529 1526 1525 1526 1524 1524 1524 1526 1527 1528 1530 1532 1533 1533 1534
1520 1520 1519 1519 1519 1519 1519 1518 1519 1518 1519 1519 1519 1519 1519 1519 1520 1520 1520 1520 1520 1520 1520 1519 1519 1518 1517 1513 1510 1511 1512 1512 1513 1513 1513 1514 1514 1515 1515 1514 1514 1514 1513 1512 1512 1511 1509 1508 1507 1504 1500 1497 1493 1490 1491 1489 1490 1495 1500 1504 1508 1515 1516 1504 1503 1510 1512 1515 1514 1519 1540 1545 1532 1528 1526 1527 1528 1525 1523 1524 1526 1527 1528 1530 1531 1533 1534 1535
1520 1519 1519 1519 1518 1518 1518 1518 1518 1518 1519 1518 1518 1519 1519 1519 1519 1519 1520 1520 1519 1520 1519 1519 1519 1518 1517 1512 1509 1510 1510 1512 1513 1512 1514 1514 1514 1514 1514 1514 1514 1513 1513 1512 1511 1510 1509 1508 1506 1502 1496 1492 1491 1491 1491 1492 1490 1491 1505 1513 1507 1509 1514 1505 1501 1507 1511 1514 1512 1519 1538 1542 1530 1525 1525 1527 1528 1526 1523 1523 1526 1527 1529 1531 1531 1532 1534 1535
1519 1519 1518 1518 1518 1518 1518 1517 1517 1518 1518 1518 1518 1519 1518 1519 1518 1519 1519 1519 1520 1520 1520 1520 1519 1519 1518 1512 1509 1509 1510 1512 1512 1513 1513 1513 1514 1513 1512 1513 1513 1512 1512 1511 1510 1509 1508 1507 1504 1500 1495 1492 1490 1492 1495 1498 1494 1488 1497 1507 1502 1506 1515 1510 1503 1502 1505 1510 1511 1515 1529 1536 1530 1524 1524 1526 1528 1526 1524 1524 1525 1528 1530 1531 1531 1532 1533 1535
1519 1518 1518 1518 1517 1517 1517 1517 1517 1517 1518 1518 1518 1518 1518 1518 1518 1519 1518 1519 1519 1519 1519 1519 1519 1520 1515 1509 1509 1509 1509 1510 1511 1512 1512 1513 1514 1512 1512 1511 1512 1512 1510 1510 1510 1508 1507 1504 1501 1498 1493 1490 1485 1489 1503 1511 1504 1494 1492 1494 1495 1501 1509 1511 1507 1501 1502 1509 1511 1511 1519 1528 1525 1522 1524 1526 1527 1527 1526 1526 1527 1529 1531 1531 1532 1533 1535 1535
1518 1518 1517 1517 1517 1517 1517 1517 1517 1517 1518 1518 1518 1518 1518 1518 1518 1518 1518 1518 1519 1519 1519 1518 1519 1522 1515 1507 1508 1507 1507 1509 1509 1510 1512 1513 1513 1512 1512 1511 1511 1511 1509 1508 1506 1504 1505 1500 1498 1498 1492 1490 1487 1491 1508 1513 1506 1501 1498 1497 1495 1494 1499 1506 1508 1502 1502 1508 1510 1512 1518 1522 1522 1523 1525 1525 1527 1528 1527 1527 1529 1530 1532 1534 1535 1536 1537 1536
1517 1517 1517 1517 1517 1517 1517 1517 1517 1517 1517 1518 1518 1518 1517 1517 1517 1517 1517 1518 1518 1517 1516 1515 1516 1518 1512 1505 1505 1505 1505 1506 1507 1509 1511 1511 1513 1513 1513 1513 1511 1509 1508 1507 1504 1501 1502 1500 1501 1506 1503 1497 1491 1491 1499 1502 1500 1500 1498 1498 1496 1494 1496 1499 1501 1498 1499 1508 1510 1513 1519 1521 1521 1523 1524 1524 1525 1528 1530 1529 1531 1532 1533 1536 1537 1537 1538 1537
1516 1517 1517 1516 1517 1517 1516 1517 1517 1517 1517 1518 1518 1517 1517 1517 1515 1515 1516 1516 1515 1512 1511 1512 1511 1510 1507 1504 1504 1505 1504 1506 1507 1508 1510 1511 1513 1512 1512 1513 1510 1509 1508 1506 1503 1497 1499 1507 1509 1507 1500 1493 1490 1490 1492 1493 1495 1496 1495 1495 1490 1490 1492 1490 1494 1494 1493 1504 1511 1511 1516 1517 1517 1520 1521 1522 1523 1526 1530 1531 1532 1533 1533 1537 1538 1538 1538 1538
1516 1517 1516 1516 1516 1516 1516 1517 1517 1517 1517 1518 1518 1517 1517 1516 1515 1516 1516 1514 1511 1509 1510 1510 1510 1508 1506 1505 1505 1505 1506 1507 1508 1509 1510 1510 1511 1511 1510 1510 1510 1512 1508 1503 1502 1496 1500 1513 1511 1498 1487 1484 1489 1490 1491 1494 1494 1495 1495 1495 1490 1487 1487 1486 1491 1493 1489 1502 1511 1508 1513 1516 1515 1518 1518 1519 1521 1524 1527 1529 1531 1533 1534 1537 1538 1538 1539 1539
1516 1516 1516 1517 1516 1516 1516 1516 1517 1517 1517 1518 1517 1517 1518 1518 1518 1518 1517 1512 1508 1508 1509 1509 1509 1508 1507 1507 1507 1507 1508 1507 1506 1508 1508 1509 1510 1510 1507 1507 1511 1511 1504 1502 1506 1507 1510 1513 1502 1488 1480 1483 1490 1490 1492 1495 1495 1496 1494 1493 1493 1486 1487 1491 1492 1491 1490 1501 1511 1509 1512 1513 1511 1515 1517 1517 1521 1525 1527 1527 1529 1532 1533 1535 1537 1539 1539 1539
1515 1515 1516 1516 1515 1516 1516 1516 1517 1517 1517 1518 1517 1517 1518 1519 1518 1518 1518 1514 1508 1505 1506 1506 1507 1506 1506 1506 1506 1507 1508 1505 1504 1504 1506 1507 1506 1507 1506 1505 1508 1509 1505 1504 1509 1515 1517 1508 1492 1482 1480 1488 1494 1492 1493 1495 1494 1494 1493 1495 1494 1485 1490 1501 1499 1493 1490 1494 1504 1508 1510 1509 1511 1515 1517 1518 1521 1525 1529 1528 1528 1530 1533 1535 1536 1539 1540 1539
1514 1515 1516 1515 1516 1516 1516 1517 1517 1517 1518 1517 1517 1517 1518 1519 1519 1518 1517 1513 1507 1502 1501 1504 1504 1505 1504 1504 1505 1505 1505 1504 1501 1500 1502 1505 1504 1506 1505 1502 1505 1509 1507 1504 1504 1510 1510 1497 1484 1483 1486 1492 1498 1496 1494 1497 1496 1488 1484 1489 1491 1486 1489 1496 1494 1490 1487 1489 1495 1504 1512 1514 1517 1521 1522 1522 1522 1524 1528 1529 1529 1530 1533 1535 1536 1538 1540 1539
1514 1515 1515 1515 1516 1516 1516 1517 1516 1518 1518 1517 1518 1517 1518 1520 1518 1519 1517 1514 1510 1501 1498 1501 1501 1502 1501 1502 1504 1503 1502 1502 1500 1498 1499 1502 1504 1504 1503 1502 1505 1508 1506 1503 1504 1507 1502 1490 1484 1487 1490 1492 1498 1499 1494 1496 1498 1491 1482 1481 1484 1488 1489 1490 1490 1489 1494 1499 1493 1498 1519 1526 1520 1521 1525 1524 1522 1524 1526 1527 1527 1530 1533 1533 1534 1537 1540 1539
1513 1515 1514 1515 1516 1515 1517 1517 1516 1519 1518 1518 1519 1518 1520 1520 1518 1520 1517 1517 1513 1499 1497 1500 1498 1499 1498 1500 1502 1502 1504 1501 1497 1498 1497 1500 1504 1502 1502 1502 1503 1505 1501 1497 1501 1502 1496 1488 1485 1489 1494 1496 1499 1498 1490 1489 1497 1498 1487 1480 1483 1488 1489 1490 1491 1493 1503 1505 1489 1488 1514 1529 1525 1523 1523 1523 1524 1526 1526 1525 1525 1530 1533 1531 1533 1537 1539 1539
1513 1513 1514 1515 1515 1516 1517 1516 1517 1519 1518 1520 1519 1519 1521 1518 1519 1519 1519 1527 1518 1494 1493 1498 1496 1497 1495 1497 1499 1502 1507 1500 1494 1497 1495 1497 1502 1501 1504 1502 1501 1504 1496 1498 1509 1503 1492 1491 1490 1490 1496 1501 1504 1501 1488 1483 1496 1498 1485 1482 1487 1489 1491 1491 1492 1497 1499 1494 1487 1484 1498 1521 1532 1526 1519 1521 1529 1532 1529 1525 1525 1530 1533 1531 1531 1536 1540 1540
1512 1512 1513 1514 1514 1516 1516 1517 1518 1517 1519 1520 1518 1521 1520 1517 1520 1518 1523 1536 1515 1486 1488 1493 1493 1495 1494 1497 1498 1499 1500 1494 1494 1498 1494 1496 1499 1499 1503 1500 1499 1500 1493 1504 1518 1502 1487 1494 1494 1491 1499 1504 1500 1493 1482 1483 1494 1490 1479 1483 1488 1488 1491 1490 1492 1496 1490 1493 1504 1496 1494 1519 1533 1524 1517 1522 1532 1538 1534 1526 1526 1532 1534 1530 1529 1535 1540 1541
1511 1511 1512 1513 1514 1515 1516 1517 1517 1516 1518 1518 1518 1521 1518 1519 1520 1516 1527 1530 1499 1481 1489 1490 1492 1495 1493 1495 1497 1495 1494 1491 1492 1494 1493 1497 1498 1497 1500 1499 1496 1497 1493 1499 1509 1499 1485 1488 1487 1487 1497 1500 1491 1481 1477 1487 1494 1484 1479 1485 1485 1485 1486 1485 1490 1493 1492 1508 1520 1503 1495 1517 1530 1523 1519 1524 1531 1536 1534 1528 1528 1534 1534 1530 1527 1534 1541 1541
1510 1510 1511 1512 1513 1515 1516 1517 1517 1517 1517 1517 1519 1519 1518 1521 1519 1523 1537 1523 1491 1484 1489 1488 1492 1493 1492 1495 1497 1495 1493 1491 1490 1491 1493 1496 1497 1496 1497 1496 1496 1498 1496 1493 1497 1495 1484 1481 1483 1484 1489 1488 1483 1478 1478 1485 1487 1483 1485 1490 1489 1486 1480 1482 1488 1492 1507 1523 1517 1499 1492 1504 1526 1531 1522 1521 1523 1525 1528 1529 1530 1533 1534 1531 1528 1534 1543 1544
1509 1509 1510 1511 1512 1513 1516 1518 1518 1518 1518 1517 1518 1518 1520 1520 1518 1527 1530 1504 1486 1489 1488 1488 1490 1488 1491 1496 1497 1496 1493 1490 1489 1492 1495 1496 1497 1498 1498 1500 1501 1504 1506 1502 1499 1493 1487 1488 1487 1485 1485 1482 1483 1485 1482 1481 1481 1485 1491 1493 1499 1497 1489 1492 1494 1497 1520 1529 1507 1492 1486 1495 1526 1536 1519 1515 1516 1514 1521 1526 1528 1532 1533 1532 1530 1535 1543 1544
1508 1509 1509 1510 1512 1513 1514 1515 1516 1516 1517 1517 1518 1519 1520 1521 1523 1524 1509 1490 1492 1493 1485 1486 1487 1485 1490 1493 1493 1495 1494 1491 1489 1492 1495 1496 1499 1500 1501 1504 1505 1514 1520 1511 1504 1498 1493 1491 1485 1483 1483 1483 1490 1495 1492 1485 1481 1488 1492 1495 1508 1512 1510 1514 1510 1507 1520 1519 1496 1486 1490 1503 1523 1522 1509 1510 1511 1509 1515 1521 1525 1530 1532 1532 1532 1537 1542 1541
1508 1509 1509 1510 1512 1513 1513 1513 1514 1516 1517 1518 1520 1518 1519 1526 1525 1511 1496 1492 1495 1485 1476 1480 1482 1482 1489 1494 1492 1490 1492 1491 1488 1492 1493 1493 1498 1498 1497 1496 1494 1507 1515 1507 1505 1504 1501 1493 1485 1486 1484 1479 1488 1499 1503 1495 1488 1490 1489 1493 1507 1515 1524 1529 1518 1513 1518 1509 1489 1483 1496 1514 1522 1514 1506 1508 1508 1507 1513 1520 1525 1528 1529 1532 1535 1538 1540 1539
1509 1509 1510 1510 1512 1513 1514 1515 1515 1516 1517 1519 1520 1518 1522 1528 1514 1497 1492 1488 1481 1474 1471 1475 1479 1483 1488 1492 1490 1485 1492 1493 1484 1490 1494 1493 1499 1499 1496 1495 1490 1495 1501 1503 1504 1502 1508 1505 1490 1489 1486 1479 1483 1491 1495 1493 1491 1488 1478 1482 1494 1501 1516 1524 1517 1518 1520 1510 1496 1491 1506 1522 1524 1518 1508 1504 1504 1505 1512 1519 1525 1529 1530 1532 1536 1538 1540 1540
1509 1509 1510 1510 1512 1513 1514 1516 1516 1516 1519 1519 1518 1519 1523 1520 1502 1492 1490 1479 1472 1474 1472 1471 1478 1488 1491 1489 1484 1479 1487 1492 1484 1488 1494 1494 1499 1497 1494 1494 1490 1489 1496 1505 1502 1492 1502 1502 1480 1475 1476 1473 1481 1481 1478 1489 1496 1486 1475 1484 1493 1491 1499 1507 1508 1511 1512 1515 1510 1505 1515 1518 1514 1514 1507 1505 1510 1509 1513 1521 1527 1533 1534 1536 1540 1541 1542 1543
1510 1510 1511 1511 1512 1513 1514 1516 1516 1517 1519 1517 1519 1519 1514 1502 1488 1484 1479 1469 1470 1475 1477 1479 1482 1490 1495 1491 1486 1480 1481 1486 1485 1489 1493 1491 1493 1490 1487 1486 1483 1486 1490 1496 1494 1488 1499 1496 1469 1467 1473 1469 1477 1476 1470 1485 1495 1488 1485 1490 1486 1478 1486 1500 1508 1503 1504 1521 1520 1507 1516 1519 1516 1524 1519 1517 1526 1525 1524 1529 1535 1542 1543 1544 1546 1545 1546 1548
1511 1511 1512 1512 1513 1513 1514 1516 1516 1519 1519 1517 1519 1514 1501 1488 1479 1475 1470 1465 1470 1472 1478 1489 1487 1487 1494 1494 1490 1484 1482 1486 1486 1491 1493 1491 1490 1485 1482 1480 1475 1479 1480 1484 1489 1484 1491 1494 1469 1466 1479 1473 1470 1474 1471 1472 1481 1491 1495 1486 1475 1476 1483 1494 1511 1515 1516 1530 1522 1505 1521 1536 1542 1548 1535 1525 1535 1538 1534 1536 1542 1549 1551 1552 1551 1549 1551 1553
1511 1512 1513 1512 1513 1514 1514 1516 1517 1519 1518 1517 1518 1509 1497 1488 1477 1473 1472 1469 1471 1471 1478 1490 1487 1482 1488 1492 1489 1482 1484 1490 1489 1491 1493 1491 1489 1480 1478 1478 1472 1473 1473 1478 1490 1483 1483 1498 1483 1467 1477 1472 1466 1478 1486 1477 1474 1484 1486 1477 1483 1502 1505 1499 1512 1525 1528 1535 1526 1511 1526 1548 1555 1553 1541 1533 1538 1540 1537 1535 1539 1545 1549 1551 1551 1550 1552 1554
1512 1512 1512 1512 1514 1514 1514 1516 1518 1519 1518 1517 1516 1506 1496 1489 1477 1472 1477 1477 1474 1475 1479 1483 1481 1481 1483 1484 1483 1480 1484 1490 1488 1490 1492 1490 1488 1477 1472 1476 1473 1473 1472 1473 1484 1480 1477 1498 1499 1478 1471 1473 1473 1486 1498 1490 1477 1479 1482 1480 1485 1499 1506 1503 1507 1516 1522 1531 1528 1519 1535 1556 1553 1544 1540 1538 1538 1536 1535 1534 1536 1541 1542 1542 1543 1544 1545 1547
1512 1511 1510 1511 1513 1513 1515 1517 1517 1518 1517 1513 1508 1499 1490 1486 1478 1475 1481 1482 1477 1476 1478 1477 1476 1481 1482 1477 1476 1477 1482 1485 1482 1487 1488 1484 1486 1480 1471 1472 1472 1472 1473 1472 1477 1478 1477 1491 1503 1490 1475 1481 1490 1490 1490 1487 1482 1487 1493 1494 1492 1491 1495 1500 1503 1503 1507 1521 1524 1527 1554 1565 1547 1539 1541 1538 1536 1535 1534 1536 1539 1540 1539 1537 1537 1538 1540 1542
1513 1510 1509 1510 1512 1513 1515 1518 1516 1514 1513 1508 1502 1494 1487 1483 1478 1477 1482 1483 1480 1476 1476 1478 1478 1477 1478 1478 1474 1472 1479 1483 1479 1482 1483 1478 1483 1485 1472 1468 1470 1470 1475 1480 1480 1481 1483 1489 1498 1498 1491 1494 1494 1479 1471 1474 1479 1487 1493 1495 1495 1494 1499 1512 1517 1505 1501 1514 1515 1527 1565 1571 1544 1539 1541 1536 1536 1536 1535 1539 1541 1542 1543 1543 1542 1542 1544 1546
1512 1509 1508 1510 1512 1512 1514 1515 1512 1509 1508 1504 1497 1490 1486 1483 1479 1479 1483 1483 1483 1479 1476 1479 1479 1473 1473 1475 1471 1469 1477 1483 1480 1479 1480 1476 1476 1477 1469 1466 1469 1470 1474 1484 1481 1475 1478 1486 1494 1496 1490 1489 1485 1472 1469 1473 1476 1483 1488 1488 1489 1491 1499 1515 1524 1512 1505 1511 1506 1516 1555 1565 1542 1538 1540 1537 1539 1539 1539 1540 1541 1543 1546 1546 1547 1547 1548 1549
1509 1507 1509 1511 1511 1513 1514 1513 1509 1507 1504 1498 1492 1485 1481 1482 1484 1485 1484 1482 1482 1482 1479 1479 1477 1472 1471 1469 1466 1468 1474 1479 1479 1475 1474 1474 1471 1467 1465 1467 1470 1470 1473 1482 1481 1474 1477 1489 1499 1497 1486 1481 1480 1475 1473 1474 1479 1488 1489 1484 1486 1491 1494 1500 1506 1505 1508 1512 1512 1525 1555 1560 1543 1538 1540 1540 1541 1542 1542 1541 1541 1544 1545 1545 1548 1548 1548 1550
1508 1507 1509 1511 1512 1512 1513 1510 1507 1505 1501 1495 1492 1486 1481 1482 1485 1486 1485 1482 1481 1480 1482 1481 1476 1473 1471 1466 1463 1465 1471 1479 1481 1473 1470 1473 1472 1468 1467 1469 1472 1472 1474 1478 1478 1478 1485 1493 1501 1509 1506 1500 1498 1497 1494 1488 1489 1495 1491 1484 1487 1489 1490 1495 1495 1500 1511 1516 1518 1536 1557 1556 1544 1539 1539 1540 1541 1543 1543 1543 1543 1543 1544 1546 1548 1548 1549 1550
1507 1506 1508 1511 1512 1512 1509 1505 1501 1499 1497 1495 1492 1490 1487 1485 1484 1484 1482 1480 1478 1477 1480 1479 1474 1471 1468 1465 1465 1465 1468 1476 1478 1475 1472 1472 1472 1471 1471 1473 1474 1472 1472 1474 1472 1477 1488 1491 1497 1512 1520 1518 1520 1519 1513 1505 1499 1498 1492 1488 1490 1489 1492 1500 1502 1510 1525 1527 1528 1541 1551 1550 1544 1541 1541 1542 1542 1543 1544 1544 1545 1544 1545 1547 1547 1548 1549 1548
1507 1505 1506 1509 1510 1509 1507 1503 1501 1499 1496 1494 1492 1489 1489 1487 1482 1481 1481 1480 1477 1475 1477 1475 1473 1473 1469 1469 1474 1474 1470 1472 1473 1473 1475 1474 1473 1471 1472 1475 1476 1473 1473 1475 1474 1476 1485 1487 1489 1500 1509 1511 1514 1510 1499 1497 1501 1502 1496 1493 1493 1492 1494 1500 1509 1520 1526 1528 1538 1545 1542 1545 1546 1543 1545 1547 1544 1544 1544 1544 1545 1545 1546 1547 1547 1548 1549 1548
1509 1504 1502 1505 1508 1507 1505 1502 1500 1499 1494 1492 1490 1486 1487 1486 1480 1477 1479 1480 1477 1475 1475 1472 1471 1475 1474 1473 1480 1480 1473 1472 1474 1474 1474 1473 1470 1470 1474 1475 1475 1476 1476 1475 1476 1480 1489 1492 1488 1491 1498 1496 1496 1494 1489 1491 1498 1499 1498 1497 1495 1495 1496 1501 1512 1520 1520 1530 1548 1547 1538 1545 1550 1545 1547 1549 1546 1546 1545 1545 1546 1546 1547 1548 1548 1549 1549 1549
1508 1503 1499 1501 1502 1501 1501 1499 1495 1494 1491 1488 1484 1480 1482 1483 1479 1477 1477 1477 1475 1475 1477 1477 1473 1472 1472 1472 1478 1480 1476 1477 1481 1478 1473 1471 1472 1475 1478 1476 1474 1476 1478 1477 1477 1480 1492 1498 1487 1486 1495 1492 1488 1490 1490 1492 1495 1495 1497 1499 1497 1498 1501 1505 1511 1513 1518 1535 1548 1544 1541 1547 1546 1543 1546 1547 1546 1548 1547 1546 1547 1547 1547 1548 1549 1549 1550 1551
1507 1505 1503 1502 1498 1493 1494 1493 1490 1490 1488 1485 1482 1481 1482 1482 1478 1475 1473 1476 1477 1473 1475 1480 1476 1469 1467 1467 1471 1478 1480 1482 1485 1480 1472 1471 1476 1480 1483 1482 1477 1475 1477 1480 1478 1478 1491 1498 1488 1488 1497 1494 1489 1490 1490 1493 1497 1496 1497 1497 1498 1501 1504 1508 1512 1511 1518 1531 1536 1537 1543 1544 1541 1541 1543 1545 1547 1548 1547 1547 1546 1546 1547 1548 1549 1550 1550 1551
1513 1512 1509 1506 1501 1493 1491 1489 1487 1488 1486 1483 1485 1483 1479 1479 1477 1471 1469 1474 1479 1475 1473 1476 1474 1467 1464 1466 1469 1472 1473 1474 1477 1475 1472 1475 1478 1478 1480 1482 1478 1476 1479 1481 1478 1480 1492 1497 1490 1492 1502 1500 1492 1490 1490 1494 1496 1498 1502 1502 1501 1505 1508 1511 1514 1514 1521 1529 1529 1533 1543 1545 1541 1540 1541 1544 1546 1545 1545 1546 1545 1546 1548 1548 1549 1550 1550 1552
1515 1514 1512 1511 1506 1498 1495 1489 1483 1485 1485 1483 1484 1482 1478 1477 1472 1467 1467 1468 1469 1472 1471 1470 1469 1465 1462 1465 1469 1467 1464 1467 1470 1467 1466 1471 1473 1471 1473 1473 1472 1477 1483 1481 1479 1483 1492 1497 1493 1497 1509 1507 1495 1492 1494 1492 1493 1503 1512 1512 1510 1514 1516 1515 1516 1518 1525 1529 1529 1534 1544 1546 1541 1539 1541 1544 1545 1544 1545 1545 1544 1546 1548 1548 1549 1550 1551 1552
1514 1514 1514 1514 1509 1502 1497 1491 1484 1486 1486 1480 1477 1477 1475 1471 1463 1462 1469 1467 1461 1463 1465 1463 1463 1464 1465 1468 1471 1468 1465 1467 1469 1466 1465 1468 1468 1465 1467 1469 1469 1474 1479 1479 1480 1484 1489 1496 1496 1501 1513 1510 1497 1494 1495 1493 1507 1524 1525 1517 1515 1516 1517 1516 1517 1521 1525 1528 1533 1541 1546 1544 1540 1541 1544 1544 1543 1545 1546 1545 1545 1547 1546 1547 1548 1549 1550 1551